Location: Wangen+im+Allg�u
(47.7098°N, 9.8383°E)
Time: 07:51:34
(UTC+02:00)

ISS - Visible Passes

Search period start: 09 May 2021 00:00
Search period end: 19 May 2021 00:00
Orbit: 418 x 421 km, 51.6° (Epoch: 08 May)

Date Brightness Start Highest point End Pass type
(mag) Time Alt. Az. Time Alt. Az. Time Alt. Az.
09 May -1.8 02:03:26 25° ENE 02:03:26 25° ENE 02:05:01 10° ENE visible
09 May -2.5 03:36:22 17° WNW 03:38:42 41° N 03:41:55 10° ENE visible
09 May -3.1 05:12:31 10° WNW 05:15:52 58° NNE 05:19:12 10° E visible
10 May -0.8 01:17:27 11° ENE 01:17:27 11° ENE 01:17:34 10° ENE visible
10 May -2.7 02:50:22 36° NW 02:51:10 44° N 02:54:26 10° ENE visible
10 May -2.7 04:25:04 10° WNW 04:28:21 48° N 04:31:40 10° E visible
11 May -2.6 02:04:21 42° NNE 02:04:21 42° NNE 02:06:59 10° ENE visible
11 May -2.5 03:37:35 10° WNW 03:40:50 42° N 03:44:05 10° E visible
12 May -1.5 01:18:16 21° ENE 01:18:16 21° ENE 01:19:31 10° ENE visible
12 May -2.4 02:51:12 18° WNW 02:53:18 40° N 02:56:32 10° ENE visible
12 May -3.6 04:27:01 10° WNW 04:30:25 75° NNE 04:33:47 10° ESE visible
13 May -2.5 02:05:02 35° NW 02:05:46 41° N 02:09:00 10° ENE visible
13 May -3.1 03:39:36 10° WNW 03:42:56 58° NNE 03:46:17 10° E visible
14 May -2.5 01:18:37 42° NNE 01:18:37 42° NNE 01:21:30 10° ENE visible
14 May -2.8 02:52:08 10° WNW 02:55:26 48° NNE 02:58:44 10° E visible
14 May -3.7 04:29:00 10° WNW 04:32:19 54° SSW 04:35:37 10° SE visible
14 May -3.5 22:50:40 10° SW 22:53:54 45° SSE 22:55:39 23° E visible
15 May -3.0 00:27:24 10° W 00:30:42 51° NNW 00:34:01 10° ENE visible
15 May -2.5 02:04:39 10° WNW 02:07:54 42° N 02:11:09 10° E visible
15 May -3.9 03:41:31 10° WNW 03:44:54 79° SSW 03:48:17 10° ESE visible
15 May -3.0 22:03:34 10° SSW 22:06:33 30° SE 22:09:33 10° E visible
15 May -3.4 23:39:51 10° WSW 23:43:12 64° NNW 23:46:35 10° ENE visible
16 May -2.4 01:17:08 10° WNW 01:20:21 40° N 01:23:35 10° ENE visible
16 May -3.7 02:54:04 10° WNW 02:57:28 76° NNE 03:00:51 10° ESE visible
16 May -2.6 04:31:15 10° W 04:34:01 24° SW 04:36:47 10° SSE visible
16 May -3.8 22:52:22 10° WSW 22:55:44 86° NNW 22:59:07 10° ENE visible
17 May -2.4 00:29:35 10° WNW 00:32:48 41° N 00:36:02 10° ENE visible
17 May -3.2 02:06:37 10° WNW 02:09:59 58° NNE 02:13:19 10° E visible
17 May -3.2 03:43:34 10° WNW 03:46:42 35° SW 03:49:49 10° SSE visible
17 May -3.8 22:04:58 10° SW 22:08:18 68° SSE 22:11:40 10° ENE visible
17 May -2.6 23:42:01 10° W 23:45:16 44° N 23:48:32 10° ENE visible
18 May -2.8 01:19:10 10° WNW 01:22:28 48° NNE 01:22:56 44° NE visible
18 May -2.9 22:54:26 10° W 22:57:44 51° NNW 23:01:03 10° ENE visible
